sat.trackr.live / text

‹ back to catalog

STARLINK-32032

NORAD 60077 · 2024-113U

PAYLOAD ACTIVE UNKNOWN

§ Identity

Operator
Country
US
Launch date
2024-06-19
Launch site
AFWTR
Launch vehicle
Mass (kg)
RCS (m²)

Purposes: comms

External: N2YO · Heavens-Above · Gunter

§ Orbital elements

Epoch: 2026-09-21T21:20:46.329504Z

Period
93.85 min
Inclination
53.1604°
Eccentricity
0.0001158
Mean motion
15.34381903 rev/d
Perigee alt
462.0 km
Apogee alt
463.5 km
Semi-major
6,840.9 km
B*
-3.9030e-5
RAAN
163.2028°
Arg perigee
53.7183°
Mean anomaly
306.3927°
Rev number
12,733

§ Raw data

STARLINK-320321 60077U 24113U   26264.88942511 -.00001694  00000+0 -39030-4 0  99992 60077  53.1604 163.2028 0001158  53.7183 306.3927 15.34381903127338

JSON: /api/v1/satellites/60077 · /tle

For live sub-satellite position, see the globe view (requires WebGL).

§ Visibility from observer

Set your observer location to see the next 7 days of passes ≥ 10°. The values pass through the URL so the page stays shareable.

No JS? Fill the form by hand. The geolocation button needs JavaScript.